Date,TemperatureHighF,TemperatureAvgF,TemperatureLowF,DewpointHighF,DewpointAvgF,DewpointLowF,HumidityHigh,HumidityAvg,HumidityLow,PressureMaxIn,PressureMinIn,WindSpeedMaxMPH,WindSpeedAvgMPH,GustSpeedMaxMPH,PrecipitationSumIn
2013-1-5,22.6,16.6,21.6,18.1,-11.8,-99.9,83,62,81,29.94,29.92,12,-241,0,0.00
2013-1-6,40.1,29.2,15.3,25.7,21.3,12.4,88,73,55,30.00,29.82,17,6,0,0.00
2013-1-7,44.1,34.2,24.4,29.4,25.6,20.0,96,72,54,29.82,29.72,18,8,0,0.01
2013-1-8,45.3,34.9,25.5,31.8,28.2,23.5,92,77,58,29.99,29.67,24,9,0,0.00
2013-1-9,52.2,37.0,27.5,35.6,29.5,23.3,90,75,48,30.27,29.98,9,4,0,0.00
2013-1-10,38.8,35.3,29.8,38.0,32.5,25.6,99,90,71,30.13,29.51,12,5,0,0.24
2013-1-11,54.9,44.5,29.5,47.1,40.3,23.2,99,86,56,29.66,29.26,26,13,0,0.22
2013-1-12,28.8,20.6,12.6,21.9,10.8,5.9,79,66,51,30.05,29.67,24,12,0,0.10
2013-1-13,23.5,13.6,6.4,7.8,5.0,3.1,86,70,42,30.22,30.03,16,8,0,0.00
2013-1-14,30.0,17.3,3.4,15.1,8.4,0.7,90,69,44,30.34,30.20,9,3,0,0.00
2013-1-15,36.5,23.3,11.8,17.3,13.4,7.7,89,68,42,30.20,29.89,10,5,0,0.00
2013-1-16,52.9,36.1,22.3,34.6,26.1,16.5,88,68,45,30.08,29.76,16,8,0,0.00
2013-1-17,43.3,31.2,25.0,34.5,28.7,24.5,99,91,70,30.31,30.08,8,4,0,0.00
2013-1-18,55.4,41.0,25.2,33.8,29.8,24.3,97,66,40,30.10,29.72,24,11,0,0.10
2013-1-19,55.9,40.0,26.4,31.7,28.0,17.6,82,64,38,30.13,29.68,22,9,0,0.01
2013-1-20,25.3,18.8,11.7,16.6,9.5,6.1,87,67,50,30.22,30.13,13,6,0,0.00
2013-1-21,15.3,12.6,10.0,10.7,1.8,-5.1,88,62,47,30.25,30.13,16,7,0,0.00
2013-1-22,26.1,17.0,9.7,10.7,7.4,-0.3,84,66,50,30.17,30.01,10,5,0,0.00
2013-1-23,34.0,21.4,13.3,19.6,14.0,7.7,94,75,52,30.26,29.94,16,7,0,0.00
2013-1-24,21.4,21.4,21.4,11.8,11.8,11.8,66,66,66,30.27,30.26,8,6,0,0.00
2013-1-25,52.5,30.0,-40.0,25.9,0.8,-104.6,44,34,33,29.99,29.88,11,4,0,0.00
2013-1-26,55.0,38.3,19.6,28.1,23.8,17.2,91,59,31,30.00,29.77,17,8,0,0.00
2013-1-27,42.8,38.9,34.3,42.5,37.4,26.1,99,95,62,29.77,29.45,73,9,0,0.43
2013-1-28,47.5,39.3,32.7,47.2,38.9,32.5,99,99,98,29.65,29.33,9,5,0,0.01
2013-1-29,39.6,33.9,30.9,39.3,32.1,29.8,99,93,89,29.48,29.33,20,10,0,0.07
2013-1-30,30.9,23.1,15.8,29.9,19.8,11.3,97,87,72,29.72,29.41,30,17,0,12.03
2013-2-2,41.7,38.1,34.0,33.9,30.8,28.2,80,75,69,29.96,29.85,18,10,0,0.03
2013-2-3,43.7,34.2,23.0,30.6,25.2,18.5,85,70,52,30.05,29.61,20,8,0,0.00
2013-2-4,34.9,28.0,23.2,27.6,22.5,19.6,88,80,73,29.84,29.58,21,8,0,0.00
2013-2-5,51.8,37.6,25.5,33.9,27.7,22.5,88,69,45,29.91,29.68,17,6,0,0.00
2013-2-6,60.3,42.1,27.1,41.1,32.3,23.8,87,70,45,29.91,29.66,18,6,0,0.01
2013-2-7,43.0,34.5,29.1,36.9,28.9,22.8,83,80,77,30.08,29.70,22,12,0,0.00
2013-2-8,35.8,28.9,25.2,27.3,23.9,20.8,89,81,70,30.19,29.98,13,6,0,0.00
2013-2-9,52.5,38.2,28.8,37.7,30.9,25.7,88,76,57,30.01,29.48,22,13,0,0.03
2013-2-10,45.9,37.4,31.8,40.0,31.2,21.8,93,79,65,29.67,29.11,30,18,0,4.36
2013-2-11,41.5,32.5,23.9,25.4,22.3,19.5,84,67,52,30.00,29.67,29,11,0,1.53
2013-2-12,50.0,33.9,20.1,25.1,21.3,16.6,89,63,35,29.99,29.74,14,6,0,0.00
2013-2-13,55.0,39.3,26.4,29.9,25.3,19.6,77,59,35,29.75,29.56,16,7,0,0.00
2013-2-14,46.0,38.3,23.7,31.0,26.2,16.4,87,63,42,30.10,29.62,28,14,0,0.30
2013-2-15,34.5,24.1,14.4,24.8,15.5,8.9,89,71,44,30.21,30.10,15,8,0,0.00
2013-2-16,33.4,23.0,10.0,23.5,16.3,6.2,90,76,59,30.17,29.82,12,6,0,0.00
2013-2-17,54.5,36.5,21.9,38.7,27.4,17.3,84,70,55,29.82,29.38,18,9,0,0.01
2013-2-18,38.1,31.9,18.5,30.3,23.9,12.8,90,72,54,29.91,29.34,29,12,0,2.81
2013-2-19,28.9,18.9,10.9,15.1,6.3,2.5,80,59,34,30.19,29.91,21,11,0,0.02
2013-2-20,23.9,15.6,6.3,10.5,5.1,-0.5,74,64,49,30.21,30.01,15,9,0,0.00
2013-2-21,23.0,21.3,19.8,18.5,14.5,9.3,89,76,55,30.05,29.64,24,12,0,0.00
2013-2-22,23.5,17.6,8.4,19.6,13.9,5.1,89,85,76,29.87,29.64,15,8,0,0.00
2013-2-23,38.7,20.9,3.4,28.7,14.3,-0.3,87,76,57,29.86,29.67,14,5,0,0.00
2013-2-24,41.2,30.6,20.7,27.5,22.9,16.4,86,73,57,29.88,29.72,8,5,0,0.00
2013-2-25,34.9,31.3,28.4,27.8,26.0,24.5,88,81,73,29.89,29.70,14,8,0,0.00
2013-2-26,32.2,29.3,25.5,28.0,26.1,23.2,91,88,83,29.74,29.59,20,13,0,0.00
2013-2-27,38.8,30.2,25.3,27.6,24.8,21.2,89,81,61,29.92,29.71,24,15,0,0.85
2013-2-28,32.5,28.2,25.5,26.1,22.8,20.1,83,80,73,30.07,29.93,23,14,0,0.01
2013-3-1,29.3,25.8,23.4,21.6,18.7,16.5,84,74,64,30.19,30.05,17,11,0,0.00
2013-3-2,37.4,27.6,15.6,24.9,19.3,12.4,88,72,50,30.19,29.93,11,5,0,0.00
2013-3-3,43.9,33.2,24.8,33.5,26.9,21.8,90,78,64,29.92,29.53,18,10,0,0.00
2013-3-4,45.1,35.2,29.1,32.9,28.7,24.9,89,77,61,29.87,29.46,16,9,0,0.00
2013-3-5,34.9,28.2,21.6,29.3,19.0,15.5,88,68,55,30.22,29.85,30,17,0,3.01
2013-3-6,40.6,28.6,20.3,23.9,19.7,15.4,84,70,50,30.26,30.06,15,6,0,0.00
2013-3-7,54.1,34.9,21.0,30.9,25.0,18.0,88,70,39,30.09,29.90,18,11,0,0.01
2013-3-8,59.0,41.7,25.3,41.1,32.4,22.7,90,71,50,30.00,29.73,23,10,0,0.05
2013-3-9,55.0,47.4,36.9,50.3,43.3,34.8,94,86,78,29.72,29.36,19,11,0,0.14
2013-3-10,36.9,28.3,21.7,34.5,26.3,20.0,94,92,89,29.77,29.50,29,20,0,8.55
2013-3-11,34.0,24.2,18.1,23.9,18.9,15.7,94,81,51,29.82,29.71,22,10,0,0.12
2013-3-12,37.2,30.2,22.6,26.5,23.0,19.1,87,75,62,30.17,29.83,23,12,0,0.03
2013-3-13,41.7,28.7,16.5,27.0,21.4,14.3,92,75,53,30.30,30.08,10,5,0,0.00
2013-3-14,58.6,43.2,29.8,43.4,33.8,23.5,86,70,55,30.08,29.90,12,6,0,0.00
2013-3-15,68.7,49.1,32.2,46.7,39.1,30.9,96,72,41,29.91,29.52,14,6,0,0.00
2013-3-16,41.0,33.3,30.2,37.3,28.1,24.5,89,81,72,30.00,29.67,23,11,0,0.02
2013-3-17,47.8,33.9,24.8,31.9,26.2,21.1,87,74,53,29.98,29.57,18,11,0,0.00
2013-3-18,44.1,35.0,24.4,32.9,24.3,14.9,96,67,37,29.89,29.56,25,12,0,1.47
2013-3-19,48.6,34.8,24.6,35.9,21.2,15.9,82,59,33,30.14,29.89,18,6,0,0.00
2013-3-20,38.8,26.3,16.7,19.9,11.2,5.3,82,55,31,30.24,29.93,18,10,0,0.00
2013-3-21,34.9,26.7,20.5,19.3,15.0,11.3,84,62,44,29.93,29.73,14,9,0,0.00
2013-3-22,35.8,31.6,27.7,21.3,19.4,15.8,75,61,51,29.85,29.78,11,5,0,0.00
2013-3-23,36.1,31.4,27.7,29.5,24.8,20.9,92,77,62,29.93,29.83,16,8,0,0.00
2013-3-24,30.6,26.7,23.4,25.4,21.5,17.1,92,81,67,29.92,29.84,24,15,0,0.08
2013-3-25,31.1,26.8,23.4,24.0,21.6,18.5,91,81,67,30.18,29.91,21,14,0,0.06
2013-3-26,43.7,28.7,15.6,22.2,18.2,11.4,87,67,39,30.21,30.06,7,4,0,0.00
2013-3-27,54.3,36.4,24.1,33.0,26.1,20.7,87,68,43,30.10,29.99,20,9,0,0.00
2013-3-28,65.3,44.8,24.4,34.2,30.3,22.9,95,61,29,30.07,29.94,11,4,0,0.00
2013-3-29,71.2,53.8,31.5,40.3,33.5,28.8,93,52,23,30.06,29.88,18,8,0,0.00
2013-3-30,67.8,54.9,46.2,54.2,44.6,34.5,95,71,37,29.92,29.72,16,7,0,1.26
2013-3-31,59.5,50.0,35.8,42.6,35.3,27.0,89,61,30,29.95,29.77,27,10,0,0.21
2013-4-1,42.4,31.6,24.3,32.1,21.0,15.9,94,67,38,30.16,29.97,20,8,0,0.03
2013-4-2,55.8,36.6,18.3,28.2,22.4,16.1,93,60,33,30.16,30.07,9,3,0,0.00
2013-4-3,54.7,40.2,26.4,28.5,24.4,20.8,80,56,33,30.20,30.05,16,6,0,0.00
2013-4-4,67.1,48.1,28.0,40.5,32.8,23.5,88,58,37,30.06,29.85,14,5,0,0.00
2013-4-5,72.9,53.5,33.8,41.2,34.7,29.0,83,53,25,30.00,29.55,24,11,0,0.22
2013-4-6,71.8,60.2,49.8,47.5,41.5,38.2,73,51,34,29.62,29.43,25,12,0,0.08
2013-4-7,75.4,58.5,39.0,50.9,41.8,34.6,94,58,29,29.67,29.44,20,7,0,0.30
2013-4-8,68.4,58.5,45.3,62.8,56.0,44.8,99,92,82,29.54,29.45,12,7,0,0.00
2013-4-9,62.4,49.1,34.7,60.3,47.8,33.7,99,95,90,29.79,29.40,20,12,0,0.38
2013-4-10,37.0,35.2,32.2,36.6,34.8,32.0,99,99,96,29.79,29.58,18,11,0,0.88
2013-4-11,35.6,32.6,30.0,33.2,29.9,27.7,99,90,83,29.63,29.49,19,13,0,0.01
2013-4-12,48.4,37.1,30.9,33.5,30.0,27.1,90,76,54,29.84,29.56,20,12,0,0.00
2013-4-13,58.8,43.1,25.9,41.2,34.0,24.9,96,73,51,29.86,29.43,21,9,0,0.00
2013-4-14,68.4,55.6,44.8,52.1,41.7,30.8,86,62,34,29.51,29.13,34,15,0,2.69
2013-4-15,45.3,40.9,34.0,31.8,27.9,22.2,78,60,50,29.89,29.50,15,8,0,0.00
2013-4-16,49.6,42.0,33.8,34.4,30.3,28.0,85,64,46,30.05,29.87,17,9,0,0.04
2013-4-17,45.1,41.7,37.4,42.7,39.4,34.0,99,92,65,29.96,29.48,21,10,0,2.02
2013-4-18,37.2,34.4,31.5,36.2,31.9,27.3,99,91,80,29.77,29.51,32,19,0,1.81
2013-4-19,49.5,37.5,28.6,29.0,25.2,22.8,87,63,38,29.93,29.70,22,13,0,0.09
2013-4-20,50.4,38.3,22.3,31.2,26.3,21.1,95,64,39,30.09,29.93,18,8,0,0.00
2013-4-21,70.2,55.5,42.3,50.6,39.7,31.8,98,58,37,29.97,29.81,32,14,0,1.71
2013-4-22,55.6,46.0,33.6,51.5,44.3,30.2,99,94,78,30.03,29.76,28,10,0,1.82
2013-4-23,40.5,33.5,29.1,31.0,27.0,24.4,89,77,63,30.07,29.97,23,14,0,0.42
2013-4-24,61.2,41.3,23.4,37.1,28.1,21.4,92,64,27,30.05,29.86,20,8,0,0.50
2013-4-25,70.3,51.5,31.3,38.2,33.8,28.7,91,56,26,30.09,29.85,26,9,0,0.07
2013-4-26,69.1,56.4,44.4,50.4,44.3,36.8,96,65,50,30.03,29.87,22,10,0,0.00
2013-4-27,67.6,54.3,43.9,51.5,48.0,43.1,99,81,54,30.03,29.78,10,4,0,0.00
2013-4-28,82.8,62.5,42.3,54.3,49.3,42.0,99,68,33,29.80,29.50,24,10,0,0.02
2013-4-29,86.0,68.5,50.7,58.5,54.0,48.6,99,64,34,29.58,29.32,12,6,0,0.00
2013-4-30,78.1,71.0,60.3,60.3,53.9,46.4,73,55,45,29.66,29.32,29,12,0,0.48
2013-5-1,60.3,44.3,34.0,48.5,38.9,33.5,99,83,58,30.22,29.67,30,16,0,7.10
2013-5-2,48.0,38.5,32.2,33.9,32.2,30.2,99,79,54,30.35,30.21,23,12,0,1.53
2013-5-3,46.2,39.3,30.4,33.5,30.6,27.8,90,72,56,30.20,29.83,21,11,0,0.11
2013-5-4,43.2,39.5,35.2,41.0,37.2,33.0,97,91,76,29.95,29.77,24,14,0,0.24
2013-5-5,54.3,46.7,41.2,48.6,44.1,40.2,99,91,81,30.00,29.92,14,9,0,0.00
2013-5-6,72.5,55.5,46.8,56.0,49.5,46.4,99,82,51,29.98,29.84,10,5,0,0.00
2013-5-7,75.0,61.2,42.8,56.3,51.3,42.5,99,73,47,29.90,29.75,14,4,0,0.00
2013-5-8,74.7,64.1,57.2,60.1,56.1,51.0,90,76,59,29.79,29.69,12,6,0,0.02
2013-5-9,68.0,61.0,57.0,59.1,56.5,53.9,96,86,67,29.81,29.65,14,8,0,0.12
2013-5-10,71.4,58.2,50.5,54.6,48.9,45.1,92,74,44,29.94,29.80,14,8,0,0.00
2013-5-11,62.8,54.3,41.0,46.0,32.9,22.4,88,48,23,30.09,29.86,30,11,0,1.37
2013-5-12,70.7,53.0,35.1,35.1,29.4,23.3,76,44,21,30.11,29.92,8,4,0,0.00
2013-5-13,84.7,66.2,45.0,53.7,45.1,35.2,81,50,26,29.95,29.67,21,10,0,0.00
2013-5-14,99.3,80.9,60.6,59.6,55.5,50.5,82,46,21,29.68,29.45,26,12,0,0.36
2013-5-15,86.2,74.0,61.2,57.6,53.0,48.5,75,49,31,29.71,29.58,16,8,0,0.00
2013-5-16,85.3,73.5,62.2,64.4,60.6,54.6,93,66,42,29.69,29.56,17,7,0,0.00
2013-5-17,87.4,73.3,58.8,63.1,59.8,56.5,92,65,42,29.72,29.62,15,6,0,0.00
2013-5-18,85.8,73.9,57.9,69.1,63.9,56.7,97,73,54,29.70,29.47,17,9,0,0.02
2013-5-19,81.9,66.2,59.0,66.9,61.0,56.5,99,85,56,29.59,29.27,18,8,0,0.79
2013-5-20,77.5,66.7,55.9,61.9,56.1,49.9,97,70,50,29.50,29.35,22,12,0,0.00
2013-5-21,65.1,60.2,54.3,54.9,50.1,47.0,84,70,56,29.57,29.45,18,12,0,0.01
2013-5-22,62.2,56.5,51.1,51.5,48.8,46.9,87,76,65,29.81,29.56,20,11,0,0.01
2013-5-23,73.0,60.2,52.0,54.2,48.5,44.7,87,68,38,30.05,29.81,16,8,0,0.00
2013-5-24,76.8,63.3,46.6,52.7,49.1,43.8,91,62,40,30.12,29.83,22,10,0,0.01
2013-5-25,83.3,70.4,58.3,68.8,61.4,48.9,97,74,58,29.93,29.75,22,9,0,0.57
2013-5-26,87.8,75.3,64.6,72.2,66.8,62.5,93,76,58,29.80,29.62,21,9,0,0.02
2013-5-27,80.2,68.5,59.7,68.2,63.4,58.7,98,85,63,29.72,29.37,23,11,0,5.70
2013-5-28,81.7,69.6,61.3,70.1,64.5,59.6,99,85,64,29.53,29.43,19,6,0,0.08
2013-5-29,76.5,68.5,62.1,70.9,64.9,60.2,96,88,80,29.54,29.33,20,10,0,1.47
2013-5-30,75.2,65.2,56.7,64.3,60.0,53.5,97,84,65,29.45,29.32,18,10,0,0.33
2013-5-31,81.1,68.3,54.0,57.4,52.8,48.3,93,61,36,29.55,29.43,14,7,0,0.00
2013-6-1,65.5,59.7,54.7,54.6,50.2,47.3,80,71,61,29.87,29.50,22,12,0,0.01
2013-6-2,73.8,59.3,51.8,48.1,45.8,43.5,83,63,34,29.97,29.83,16,7,0,0.00
2013-6-3,77.4,63.9,47.5,54.7,50.3,44.9,92,64,42,29.88,29.63,20,9,0,0.07
2013-6-4,79.0,68.5,59.5,65.8,60.1,53.8,88,75,60,29.79,29.67,15,6,0,0.02
2013-6-5,80.6,64.7,54.3,63.3,55.2,49.4,94,73,40,29.86,29.77,24,7,0,0.72
2013-6-6,72.1,60.7,52.2,57.5,52.0,48.5,88,74,52,29.82,29.78,13,6,0,0.01
2013-6-8,77.4,66.5,61.5,63.9,61.0,58.6,92,83,59,29.57,29.47,16,10,0,0.67
2013-6-9,73.8,65.5,58.6,60.9,57.7,54.5,93,76,60,29.66,29.55,19,10,0,0.17
2013-6-10,84.2,70.5,55.0,66.4,59.9,52.9,93,71,47,29.71,29.57,14,5,0,0.00
2013-6-11,94.5,77.8,66.6,67.7,63.9,50.9,91,65,23,29.61,29.47,31,10,0,0.66
2013-6-12,90.9,79.8,63.7,71.3,64.7,53.7,80,61,45,29.84,29.46,22,10,0,0.05
2013-6-13,81.0,68.3,56.8,59.6,55.5,52.0,87,66,40,29.93,29.78,10,4,0,0.00
2013-6-14,91.8,76.5,61.7,73.6,65.4,57.2,87,70,55,29.85,29.56,24,11,0,0.38
2013-6-15,84.2,73.8,65.3,67.9,64.5,56.0,95,74,41,29.80,29.63,28,7,0,3.08
2013-6-16,86.7,74.9,65.5,69.2,66.3,64.2,98,77,49,29.81,29.72,10,4,0,0.00
2013-6-17,88.3,77.9,66.0,69.2,61.5,51.2,95,62,29,29.83,29.74,10,4,0,0.00
2013-6-18,85.3,74.5,63.5,61.9,58.8,55.7,83,60,41,29.89,29.77,10,4,0,0.00
2013-6-19,88.5,76.0,61.9,66.4,62.0,58.7,91,64,40,29.83,29.73,18,8,0,0.01
2013-6-20,91.6,79.9,66.4,72.0,67.4,60.3,87,67,53,29.80,29.63,24,12,0,0.16
2013-6-21,96.3,84.9,76.5,73.4,70.0,68.3,76,62,43,29.71,29.62,22,14,0,0.00
2013-6-22,91.6,83.1,74.5,70.9,66.6,58.5,72,58,46,29.79,29.60,22,11,0,0.65
2013-6-23,81.1,73.7,64.0,71.2,67.0,61.3,94,80,62,29.77,29.59,27,8,0,2.06
2013-6-24,83.8,75.0,70.3,74.7,69.6,65.9,94,84,68,29.76,29.55,15,5,0,0.41
2013-6-25,87.6,80.4,72.1,75.2,69.5,61.1,87,70,60,29.62,29.47,25,9,0,0.05
2013-6-26,93.4,81.7,71.2,72.4,68.3,62.5,95,67,40,29.71,29.48,12,5,0,0.00
2013-6-27,82.8,72.7,67.1,71.6,66.6,63.5,92,82,65,29.84,29.71,20,4,0,0.27
2013-6-28,85.8,76.5,66.9,66.9,61.9,55.9,91,64,37,29.82,29.72,19,8,0,0.02
2013-6-29,81.9,71.8,62.6,59.3,56.6,54.6,79,60,42,29.77,29.70,23,10,0,0.37
2013-6-30,78.8,68.4,58.3,59.9,55.0,51.6,88,65,42,29.93,29.77,12,5,0,0.01
2013-7-1,82.6,69.7,54.7,58.2,53.1,49.8,85,59,35,30.01,29.92,11,4,0,0.00
2013-7-2,84.9,70.1,56.7,59.4,55.6,52.2,86,63,36,29.99,29.88,9,2,0,0.00
2013-7-3,86.2,69.3,55.4,61.3,56.9,53.7,94,68,37,29.90,29.78,9,3,0,0.03
2013-7-4,86.2,72.8,55.4,60.7,56.6,51.6,88,59,37,29.83,29.71,16,6,0,0.01
2013-7-5,88.7,75.8,61.2,65.4,61.0,55.8,84,62,43,29.76,29.66,16,7,0,0.00
2013-7-6,86.2,74.0,63.9,68.6,62.4,59.3,85,68,54,29.71,29.63,16,7,0,0.00
2013-7-7,94.8,82.9,73.2,72.4,65.7,60.3,73,57,41,29.72,29.64,19,9,0,0.00
2013-7-8,87.3,80.7,74.5,74.1,68.7,65.1,80,67,56,29.81,29.72,17,6,0,0.00
2013-7-9,98.8,85.8,74.1,75.9,71.7,66.9,86,64,46,29.77,29.64,12,5,0,0.10
2013-7-10,86.0,78.8,68.7,71.5,66.7,62.6,82,67,51,29.92,29.76,11,4,0,0.00
2013-7-11,86.7,74.0,61.5,65.0,61.4,57.6,89,67,46,29.94,29.78,11,5,0,0.00
2013-7-12,91.0,78.1,63.3,72.5,64.9,57.6,82,65,53,29.83,29.73,13,8,0,0.00
2013-7-13,87.4,78.8,71.8,72.6,66.3,60.0,72,66,60,29.81,29.74,14,8,0,0.00
2013-7-14,87.3,77.2,67.3,65.2,62.9,60.5,86,63,44,29.97,29.79,16,7,0,0.00
2013-7-15,89.1,75.0,59.5,70.3,64.1,56.9,91,71,48,30.02,29.93,13,4,0,0.00
2013-7-16,92.5,80.3,67.5,70.1,66.3,63.4,88,64,44,30.09,30.00,9,4,0,0.00
2013-7-17,93.4,81.4,68.7,70.7,68.6,66.3,94,68,46,30.13,29.99,9,4,0,0.00
2013-7-18,95.0,82.3,68.2,70.2,67.5,64.5,91,64,42,30.00,29.76,19,7,0,0.00
2013-7-19,96.3,84.8,73.4,71.7,67.3,62.9,75,57,42,29.78,29.69,10,5,0,0.00
2013-7-20,86.4,76.9,66.4,67.8,64.1,59.2,80,66,49,29.80,29.67,11,4,0,0.00
2013-7-21,92.8,79.1,66.7,70.7,67.0,63.2,89,69,46,29.73,29.58,9,4,0,0.00
2013-7-22,97.0,82.0,68.4,74.6,69.7,65.3,92,69,42,29.66,29.55,12,5,0,0.00
2013-7-23,81.1,73.1,64.9,65.9,63.5,61.6,90,73,60,29.82,29.64,28,6,0,0.33
2013-7-24,86.0,72.8,59.2,65.5,61.6,57.4,94,70,49,29.90,29.80,9,4,0,0.00
2013-7-25,81.1,72.5,64.6,65.9,63.5,60.2,89,74,57,29.88,29.82,12,4,0,0.00
2013-7-26,79.7,70.7,57.0,65.5,59.1,51.2,95,70,42,29.94,29.80,19,7,0,0.01
2013-7-27,76.6,64.5,53.4,53.2,49.2,44.0,88,61,36,29.97,29.83,15,5,0,0.00
2013-7-28,80.1,65.3,47.5,54.6,49.7,44.4,89,61,36,29.90,29.82,8,3,0,0.00
2013-7-29,65.7,62.6,59.7,63.6,59.0,53.6,95,88,71,29.88,29.81,10,5,0,1.37
2013-7-30,77.0,70.0,64.9,67.3,65.2,63.6,97,86,71,29.92,29.82,11,4,0,0.01
2013-7-31,89.6,74.4,62.6,69.1,64.9,61.0,95,74,49,29.96,29.88,7,2,0,0.00
2013-8-1,89.2,74.5,63.3,70.0,65.2,61.8,95,75,47,29.93,29.73,18,5,0,2.68
2013-8-2,84.2,74.5,64.9,69.1,65.2,60.9,88,74,59,29.83,29.62,22,7,0,0.07
2013-8-3,82.2,70.9,62.4,65.4,60.4,57.2,84,70,55,29.99,29.83,12,6,0,0.00
2013-8-4,77.5,68.8,62.6,66.1,60.4,55.6,85,75,68,29.99,29.84,11,6,0,0.00
2013-8-5,89.2,76.0,68.5,73.3,69.3,64.5,94,81,58,29.86,29.65,12,5,0,0.00
2013-8-6,94.5,78.5,67.3,75.8,70.9,65.8,95,79,55,29.73,29.61,12,4,0,0.00
2013-8-7,85.6,76.2,68.9,71.7,65.2,59.7,92,71,43,29.82,29.64,11,4,0,0.00
2013-8-8,75.9,69.2,62.4,65.3,62.2,59.3,90,79,63,29.85,29.77,7,3,0,0.00
2013-8-9,82.4,72.8,63.0,67.6,63.9,58.1,91,75,58,29.97,29.84,9,4,0,0.00
2013-8-10,84.0,70.9,55.9,65.3,59.9,53.6,92,70,50,30.03,29.91,10,4,0,0.00
2013-8-11,87.1,75.2,62.2,70.0,64.2,57.3,85,70,53,29.96,29.82,11,5,0,0.00
2013-8-12,85.8,75.0,66.9,70.5,65.5,59.2,90,73,50,29.89,29.81,11,4,0,0.16
2013-8-13,79.5,70.6,60.8,61.0,58.7,56.4,86,68,47,29.99,29.89,9,3,0,0.00
2013-8-14,77.9,65.6,54.1,62.2,57.5,51.2,91,76,57,30.02,29.89,10,4,0,0.00
2013-8-15,71.1,63.4,59.9,62.8,58.7,57.2,92,85,74,29.92,29.82,12,6,0,0.85
2013-8-16,75.7,66.4,61.3,61.7,58.8,57.1,87,77,62,29.99,29.91,10,5,0,0.00
2013-8-17,79.0,68.3,58.1,61.4,58.1,53.5,93,72,51,30.03,29.92,9,4,0,0.00
2013-8-18,81.1,67.6,50.5,63.5,58.1,48.8,95,74,53,29.99,29.86,12,4,0,0.00
2013-8-19,85.8,72.9,60.3,69.5,64.2,58.0,93,76,57,29.90,29.74,15,6,0,0.00
2013-8-20,89.6,78.1,68.9,71.3,67.2,63.9,86,70,54,29.81,29.72,19,8,0,0.00
2013-8-21,91.8,79.2,68.9,72.7,67.7,63.5,83,69,52,29.84,29.77,14,7,0,0.00
2013-8-22,86.5,76.4,69.4,70.9,67.5,63.6,89,75,58,29.91,29.80,10,5,0,0.00
2013-8-23,90.3,78.0,68.0,72.2,68.5,65.6,93,75,51,29.91,29.79,12,5,0,0.00
2013-8-24,92.1,80.6,70.7,74.7,69.6,66.0,85,70,54,29.90,29.83,17,7,0,0.00
2013-8-25,94.3,82.2,70.2,74.6,70.5,66.1,87,69,52,29.97,29.88,14,8,0,0.00
2013-8-26,95.9,83.5,73.8,72.9,69.6,67.0,80,64,46,29.92,29.79,16,8,0,0.00
2013-8-27,95.2,83.3,73.2,73.2,67.8,62.0,72,61,45,29.81,29.74,18,10,0,0.00
2013-8-28,94.8,81.4,68.2,72.0,65.7,61.2,79,61,37,29.84,29.77,10,5,0,0.00
2013-8-29,97.2,81.9,68.4,75.2,70.2,64.6,92,70,42,29.83,29.72,14,4,0,0.00
2013-8-30,99.7,84.0,70.0,74.0,69.6,64.2,84,65,40,29.73,29.63,10,4,0,0.00
2013-8-31,94.5,80.5,71.2,74.5,70.7,66.6,92,74,44,29.70,29.60,8,3,0,0.00
2013-9-1,85.5,75.0,63.9,69.9,62.4,56.8,91,68,41,29.82,29.56,18,7,0,0.16
2013-9-2,83.1,68.5,56.3,60.6,56.3,51.2,94,68,39,29.92,29.81,10,3,0,0.00
2013-9-3,86.2,68.8,50.0,62.1,56.4,47.5,94,68,41,29.92,29.82,9,3,0,0.00
2013-9-4,86.7,71.8,60.1,64.7,60.6,56.5,90,70,44,29.99,29.85,9,4,0,0.00
2013-9-5,89.1,74.1,64.9,67.3,61.9,59.3,88,68,38,30.02,29.91,11,4,0,0.00
2013-9-6,93.6,77.5,62.4,70.1,64.5,57.8,87,66,46,29.93,29.72,17,6,0,0.00
2013-9-7,97.5,80.5,67.6,72.6,67.2,62.2,85,66,41,29.76,29.66,13,5,0,0.00
2013-9-8,96.3,79.9,67.3,73.9,70.0,65.5,95,74,45,29.73,29.61,9,3,0,0.00
2013-9-9,98.1,84.6,73.9,66.5,62.6,59.1,67,50,28,29.68,29.61,22,10,0,0.00
2013-9-10,97.0,82.8,70.7,66.5,62.9,59.1,72,53,36,29.86,29.68,19,8,0,0.00
2013-9-11,82.8,77.0,69.3,71.2,68.6,65.9,90,76,63,29.96,29.88,10,3,0,0.35
2013-9-12,81.5,71.4,59.0,66.8,58.5,50.3,94,67,38,30.03,29.93,14,4,0,0.29
2013-9-13,77.4,63.2,49.5,53.5,49.7,46.1,88,64,39,30.05,29.89,8,3,0,0.00
2013-9-14,80.1,64.4,49.8,55.8,51.6,47.0,93,67,38,29.90,29.69,16,6,0,0.00
2013-9-15,69.1,65.5,61.5,62.9,57.1,53.3,86,75,61,30.04,29.66,14,6,0,0.13
2013-9-16,63.0,59.3,53.1,55.6,52.3,48.7,93,78,71,30.14,30.01,15,7,0,0.02
2013-9-17,81.1,66.4,57.6,67.7,61.6,55.6,96,85,64,30.01,29.69,14,6,0,0.73
2013-9-18,92.1,78.2,65.8,70.2,66.2,62.8,90,69,45,29.71,29.49,23,10,0,0.06
2013-9-19,85.5,72.6,59.7,67.2,62.2,51.0,91,70,54,29.82,29.54,25,7,0,1.29
2013-9-20,73.0,60.8,50.4,51.3,47.2,44.2,85,63,37,29.91,29.78,17,7,0,0.00
2013-9-21,79.5,59.2,43.3,54.4,47.8,41.0,93,69,40,29.87,29.67,10,4,0,0.00
2013-9-22,82.4,66.1,49.8,56.2,50.8,46.9,91,62,33,29.72,29.61,18,7,0,0.00
2013-9-23,76.8,59.5,46.8,55.4,49.4,44.6,93,71,45,29.66,29.52,16,7,0,0.04
2013-9-24,71.4,64.2,55.2,57.3,54.4,50.5,88,71,60,29.72,29.49,14,5,0,0.02
2013-9-25,82.9,66.6,51.3,60.6,56.2,49.9,95,72,46,29.73,29.54,12,4,0,0.00
2013-9-26,89.1,73.4,59.2,60.3,58.0,55.1,89,62,37,29.61,29.53,23,10,0,0.04
2013-9-27,89.2,76.1,66.9,61.2,58.3,55.8,73,56,37,29.66,29.56,22,10,0,0.10
2013-9-28,72.5,62.9,47.5,62.3,50.6,41.0,89,66,40,29.89,29.48,20,9,0,0.62
2013-9-29,78.6,60.0,42.6,46.8,43.0,39.2,89,59,28,29.90,29.71,14,5,0,0.00
2013-9-30,81.9,64.0,47.3,53.2,48.8,43.6,89,61,34,29.74,29.54,18,8,0,0.00
2013-10-1,81.0,64.2,52.0,56.5,51.7,46.7,84,65,42,29.76,29.61,10,4,0,0.00
2013-10-2,80.4,69.4,56.8,61.6,59.0,53.6,93,70,52,29.78,29.64,10,5,0,0.00
2013-10-3,81.0,68.7,60.4,66.4,61.4,56.3,93,79,60,29.71,29.49,20,9,0,2.52
2013-10-4,87.3,68.2,53.1,71.4,59.0,38.7,93,74,40,29.74,29.43,21,10,0,0.87
2013-10-5,54.7,48.8,42.8,37.2,34.0,32.6,68,57,44,29.79,29.70,21,13,0,0.22
2013-10-27,70.3,57.2,44.1,36.0,30.8,-99.9,63,41,27,29.85,29.70,19,-17,0,0.00
2013-10-28,55.9,46.1,35.1,39.4,35.0,29.3,80,66,52,30.08,29.85,22,8,0,0.00
2013-10-29,55.2,48.9,43.0,54.1,45.4,38.0,96,88,67,30.02,29.81,12,6,0,0.10
2013-10-30,58.6,50.5,44.8,54.1,48.6,42.0,97,93,85,29.84,29.66,13,5,0,0.92
2013-10-31,59.0,46.1,38.3,46.5,39.7,35.4,95,80,51,29.69,29.49,17,5,0,0.00
2013-11-1,61.5,48.0,38.8,43.8,37.1,32.9,79,67,39,30.03,29.60,20,11,0,0.26
2013-11-2,58.8,46.0,35.2,37.2,33.4,29.5,80,63,37,30.22,30.03,17,8,0,0.00
2013-11-3,58.3,53.4,40.5,39.2,36.3,31.5,70,53,42,29.98,29.74,26,15,0,3.07
2013-11-4,57.9,50.4,40.6,45.6,39.0,33.2,77,66,50,30.13,29.78,17,6,0,0.00
2013-11-5,49.1,44.7,34.9,47.7,40.5,32.5,95,85,71,30.13,29.75,17,7,0,1.91
2013-11-6,44.4,35.3,31.1,34.9,30.9,27.7,91,84,67,30.25,30.02,17,7,0,0.00
2013-11-7,51.6,38.4,29.7,32.7,26.4,22.5,88,65,34,30.36,30.21,16,5,0,0.00
2013-11-8,65.3,53.5,29.5,37.7,34.0,23.2,79,50,31,30.21,29.68,27,10,0,0.92
2013-11-9,62.6,48.4,37.9,36.4,33.5,30.7,75,58,34,30.27,29.86,12,5,0,0.00
2013-11-10,55.0,42.7,29.7,35.9,30.5,25.9,86,64,35,30.35,30.06,12,4,0,0.00
2013-11-11,46.8,35.3,19.8,42.5,27.2,10.9,90,72,53,30.65,30.00,25,12,0,1.08
2013-11-12,35.2,21.7,10.8,11.3,8.8,6.1,83,60,30,30.76,30.42,13,5,0,0.01
2013-11-13,54.1,37.0,21.2,27.5,20.4,11.0,69,52,35,30.44,29.82,19,11,0,0.00
2013-11-14,54.5,43.4,33.1,32.8,26.4,20.6,78,52,36,29.81,29.72,19,7,0,0.02
2013-11-15,57.9,41.2,24.6,39.6,32.1,21.3,89,72,46,29.74,29.46,16,5,0,0.00
2013-11-16,67.5,54.0,44.4,52.8,40.3,29.3,90,64,28,29.46,29.18,27,10,0,1.08
2013-11-17,58.6,49.3,36.3,39.4,34.6,30.1,78,58,41,29.98,29.14,26,10,0,0.65
2013-11-18,59.0,41.7,29.3,32.4,26.6,23.3,84,59,29,30.16,29.97,13,6,0,0.00
2013-11-19,63.1,47.3,29.8,33.0,27.2,22.3,75,48,27,30.08,29.77,25,11,0,0.88
2013-11-20,59.2,47.4,35.8,37.4,32.8,27.4,85,58,41,29.82,29.63,16,9,0,0.00
2013-11-21,36.3,28.6,20.8,33.4,24.2,16.7,92,83,77,30.46,29.83,22,13,0,0.45
2013-11-22,26.2,19.7,14.0,16.4,12.3,9.0,83,73,57,30.60,30.46,21,8,0,0.00
2013-11-23,22.3,16.8,9.1,13.3,7.3,3.3,78,66,46,30.75,30.51,14,6,0,0.02
2013-11-24,31.1,20.4,9.1,15.2,10.0,3.9,79,65,47,30.61,30.06,16,9,0,0.01
2013-11-25,42.6,31.9,24.8,29.2,21.6,13.4,76,66,57,30.05,29.94,15,8,0,0.00
2013-11-26,33.4,25.4,14.0,23.6,14.5,6.3,81,64,37,30.25,30.02,23,10,0,0.45
2013-11-27,34.3,23.0,10.2,18.0,11.1,5.0,79,62,41,30.24,29.86,14,7,0,0.00
2013-11-28,33.8,26.3,15.4,20.9,16.7,10.4,80,67,51,30.29,29.88,19,7,0,0.05
2013-11-29,50.4,29.9,13.1,28.8,19.9,8.9,84,68,43,30.29,29.95,15,6,0,0.00
2013-11-30,60.1,39.0,22.6,33.8,26.3,17.9,84,62,33,29.94,29.84,7,3,0,0.00
2013-12-1,51.6,36.3,22.6,31.0,26.3,19.3,88,68,45,29.94,29.65,7,3,0,0.00
2013-12-2,65.5,44.0,28.4,35.8,30.7,24.1,86,64,32,29.64,29.32,10,5,0,0.00
2013-12-3,47.5,37.9,32.2,35.9,31.3,26.7,86,77,64,29.45,29.27,12,5,0,0.00
2013-12-4,35.8,22.9,16.2,31.8,18.3,7.9,93,83,69,29.88,29.41,23,15,0,2.62
2013-12-5,16.9,12.2,7.2,8.8,1.2,-3.7,75,61,51,30.24,29.87,25,12,0,1.54
2013-12-6,12.6,6.0,0.0,-3.3,-4.8,-7.2,76,61,48,30.50,30.24,15,9,0,0.00
2013-12-7,14.9,5.6,-5.8,1.4,-4.2,-10.6,80,64,45,30.56,30.19,10,5,0,0.00
2013-12-8,20.8,14.2,6.4,16.4,9.3,1.4,85,81,56,30.18,29.79,14,8,0,0.03
2013-12-9,15.4,5.3,-2.9,5.8,-1.4,-7.3,85,74,51,30.17,29.91,20,9,0,0.24
2013-12-10,32.5,21.9,12.2,20.5,13.0,4.3,79,68,56,30.07,29.90,18,7,0,0.13
2013-12-11,28.8,10.8,1.4,23.5,2.3,-4.3,82,68,51,30.48,30.04,25,8,0,0.08
2013-12-12,34.0,21.3,1.0,22.7,12.5,-4.2,83,69,58,30.28,29.89,11,6,0,0.00
2013-12-13,32.9,22.9,13.8,25.9,18.0,10.1,86,81,73,29.88,29.65,14,6,0,0.01
2013-12-14,23.0,17.8,10.2,18.1,12.8,6.6,86,80,74,30.02,29.84,19,9,0,0.05
2013-12-15,35.8,24.0,12.2,27.1,18.8,8.6,88,81,68,29.96,29.73,7,3,0,0.00
2013-12-16,48.0,26.4,13.6,33.5,21.1,10.5,89,81,56,29.99,29.75,11,3,0,0.00
2013-12-17,43.7,32.3,23.7,29.3,21.1,16.0,87,66,33,30.10,29.91,18,6,0,0.00
2013-12-18,58.8,41.8,23.4,31.2,26.5,16.8,76,56,34,29.90,29.49,20,9,0,0.00
2013-12-19,37.6,30.9,19.4,28.4,24.2,15.6,86,76,69,29.66,29.50,18,8,0,0.04
2013-12-20,19.2,16.2,12.9,15.4,11.6,8.5,85,82,79,29.78,29.65,22,10,0,0.00
2013-12-21,24.4,19.6,18.1,17.8,13.8,12.7,79,78,73,29.71,29.56,8,4,0,0.00
2013-12-22,20.5,8.0,6.1,17.0,2.7,0.7,86,79,77,30.19,29.64,10,6,0,0.05
2013-12-23,13.3,6.4,0.7,3.1,-2.0,-6.5,78,68,53,30.42,30.19,18,7,0,0.00
2013-12-24,27.3,14.8,1.4,23.8,9.0,-3.8,88,78,69,30.33,29.94,17,8,0,0.00
2013-12-25,43.5,29.0,16.7,29.9,21.8,13.8,88,76,51,30.07,30.02,19,9,0,0.00
2013-12-26,49.3,35.8,27.1,26.6,23.3,19.5,74,61,40,30.07,29.92,16,6,0,0.00
2013-12-27,57.0,37.6,20.5,33.5,25.1,15.3,82,62,41,30.07,29.89,17,6,0,0.00
2013-12-28,54.9,40.7,18.9,30.3,27.0,10.1,72,59,37,29.93,29.57,25,12,0,2.89
2013-12-29,18.0,10.7,3.7,9.2,-5.2,-13.9,72,50,26,30.21,29.93,28,15,0,4.46
2013-12-30,38.7,23.2,1.8,24.9,12.1,-8.9,77,63,42,30.11,29.86,20,7,0,0.04
2013-12-31,51.6,23.8,7.5,28.1,13.8,3.2,82,67,40,30.08,29.74,15,6,0,0.08
2014-1-1,11.7,9.3,7.5,5.6,3.8,1.8,79,78,76,30.10,30.01,15,12,0,0.32
2014-1-2,12.2,9.9,3.4,2.7,1.4,-1.6,79,68,65,30.27,30.19,9,6,0,0.00